Location: ??????
(38.0131°N, 23.7723°E)
Time: 05:24:24
(UTC+00:00)

Timation 2 Rocket - Pass Details

Date: 17 October 2021
Orbit: 904 x 1077 km, 70.0° (Epoch: 28 November)

Event Time Altitude Azimuth Distance (km) Brightness Sun altitude
Rises 16:34:15 0° 335° (NNW) 3,879 7.4 -10.6°
Reaches altitude 10° 16:36:54 10° 335° (NNW) 2,915 6.8 -11.1°
Maximum altitude 16:43:48 84° 248° (WSW) 1,068 4.3 -12.4°
Drops below altitude 10° 16:50:27 10° 161° (SSE) 2,819 6.2 -13.7°
Sets 16:52:59 0° 161° (SSE) 3,744 6.9 -14.2°
